User: anonymous   Login
Location: Gerlach
(40.6516°N, 119.3568°W)
Time: 10:58:11
(UTC-07:00)
Language:

Tiros 1 despin weight - Orbit

View from above orbital plane
View from above orbital plane
View from above satellite
View from above satellite

Ground track
Ground track

The orbit data is extracted from the following two-line orbital elements,

1   115U 60002D   24150.38293763  .00002353  00000-0  26661-3 0  9995
2   115  48.1615 163.7815 0030388 139.8380 220.4789 14.89501856427292
Epoch (UTC): 29 May 2024 09:11:25
Eccentricity: 0.0030388
inclination: 48.1615°
perigee height: 578 km
apogee height: 620 km
right ascension of ascending node: 163.7815°
argument of perigee: 139.8380°
revolutions per day: 14.89501856
mean anomaly at epoch: 220.4789°
orbit number at epoch: 42729

The dashed part of the orbit path shows where the satellite is in the earth's shadow,  

DLR